ONEWEB-0342 (49208 NORAD) Tracking and Keplerian Element Data

This shows tracking and keplerian element data for the satellite.

Feedback or suggestion? Click here.




ElementValue
Catalog49208
NameONEWEB-0342
Epoch Orbit361
Epoch Day287.91667824
Epoch Year2021
RAAN317.5411
Inclination87.2192
Eccentricity0.0021251
Argument of Perigee178.932
Mean Anonmoly45.6698
Mean Motion14.95078241
Decay Rate-0.01287216
L11 49208U 21083Y 21287.91667824 -.01287216 00000-0 -12681+0 0 9996
L22 49208 87.2192 317.5411 0021251 178.9320 45.6698 14.95078241 3616

Live tracking and technical data element details for ONEWEB-0342 (NORAD 49208). ONEWEB-0342 can be tracked NOW for your location showing map with azimuth and elevation plus other details from your city location.

Track the satellite on the map from your city or location and see movement details for azimuth, elevation, latitude, longitude, range, height, and movement on the map or in text.







IsCatalogInMostPopularTable: catalog: 49208, numindb: 7
Update: records affected: 1



GetName: 49208 ONEWEB-0342

Hit Count: updated at: Tue, 19 Oct 2021 08:33:29 GMT